www.pogodaiklimat.ru

Погода и климат >> Архив погоды >> Индонезия >> Котабару


ПОГОДА в Котабару

  • Прогноз погоды в Котабару
  • Монитор погоды в Котабару

АРХИВ ПОГОДЫ в Котабару

Время (UTC), дата Ветер
(напр.,м/с)
 
Видим.   Явления Облачность Т
(С)
Тd
(С)
f
(%)
Тe
(С)
Тes
(С)
Комфортность P
(гПа)
Po
(гПа)
Тmin
(С)
Tmax
(С)
R
(мм)
R24
(мм)
S
(см)
03 18.06 Ю 3 6000 м 9/4 420 м
[Cu med, cong Ac trans Ci fib]
+28.9 +25.1 80 +42 +47 опасность
перегрева
1011.1 1010.8
06 18.06 В 2 6000 м слаб. дождь 9/6 420 м
[Cu med, cong As trans Ci fib]
+26.5 +24.3 88 +37 +41 очень
душно
1009.3 1009.0 11
09 18.06 Ю 1 7000 м {дождь} 8/5 480 м
[Cu med, cong As trans Ci fib]
+27.9 +23.3 76 +38 +38 очень
душно
1008.5 1008.2 0.0
12 18.06 СЗ 1 7000 м {дождь} 6/5 480 м
[Cu med, cong As trans Ci fib]
+25.7 +23.7 89 +35 +35 очень
душно
1009.8 1009.5 +30.5 0.0
15 18.06 штиль 0 7000 м 6/5 480 м
[Cu med, cong As trans Ci fib]
+24.8 +23.7 94 +34 +34 очень
душно
1010.5 1010.2
00 19.06 Ю 1 6000 м 8/3 420 м
[Cu med, cong Ac trans Ci fib]
+24.4 +23.6 95 +33 +35 очень
душно
1011.1 1010.8 +23.3 11
03 19.06 ЮЗ 3 8000 м 9/6 420 м
[Cu med, cong Ac trans Ci fib]
+26.8 +25.1 90 +39 +42 очень
душно
1011.1 1010.8
06 19.06 Ю 3 8000 м 9/6 420 м
[Cu med, cong Ac trans Ci fib]
+28.3 +23.3 74 +38 +41 очень
душно
1009.5 1009.2
09 19.06 Ю 4 8000 м 9/5 420 м
[Cu med, cong As op Ci fib]
+27.0 +22.8 78 +36 +36 очень
душно
1008.9 1008.7
12 19.06 Ю 2 8000 м 9/5 420 м
[Cu med, cong As op Ci fib]
+25.0 +23.0 89 +33 +33 очень
душно
1010.4 1010.2 +29.3
15 19.06 З 1 7000 м в посл. час дождь 9/5 420 м
[Cu med, cong As op Ci fib]
+24.5 +23.4 94 +33 +33 очень
душно
1011.3 1011.1 1
00 20.06 Ю 3 8000 м {дождь} 8/5 420 м
[Sc diur, vesp Ac trans Ci fib]
+25.2 +23.5 90 +34 +35 очень
душно
1011.9 1011.7 +23.6 0.2
03 20.06 Ю 4 8000 м 9/5 420 м
[Cu med, cong As op Ci fib]
+28.4 +24.3 78 +40 +43 очень
душно
1011.9 1011.7
06 20.06 Ю 4 8000 м 9/5 420 м
[Cu med, cong As op Ci fib]
+29.4 +23.9 72 +40 +43 очень
душно
1009.8 1009.6
09 20.06 Ю 3 8000 м 8/4 480 м
[Cu med, cong As op Ci fib]
+29.4 +23.0 68 +39 +40 очень
душно
1008.8 1008.5
12 20.06 штиль 0 8000 м 6/4 480 м
[Cu med, cong As trans Ci fib]
+26.8 +24.0 85 +37 +37 очень
душно
1009.6 1009.3 +29.8
15 20.06 штиль 0 8000 м 6/4 480 м
[Cu med, cong As trans Ci fib]
+24.9 +23.2 90 +33 +33 очень
душно
1010.7 1010.4
00 21.06 Ю 1 8000 м 4/3 420 м
[Cu med, cong Ac trans Ci fib]
+24.2 +23.7 97 +33 +35 очень
душно
1010.9 1010.6 +22.8
03 21.06 СЗ 4 8000 м 6/5 420 м
[Cu med, cong Ac trans Ci fib]
+29.0 +24.1 75 +40 +46 очень
душно
1009.7 1009.4
06 21.06 ЮВ 2 8000 м 6/5 420 м
[Cu med, cong Ac trans Ci fib]
+31.4 +24.4 66 +44 +50 опасность
перегрева
1007.1 1006.8
09 21.06 В 3 8000 м {дождь} 6/5 480 м
[Cu med, cong As trans Ci fib]
+30.5 +24.9 72 +44 +44 опасность
перегрева
1006.8 1006.5 4
12 21.06 штиль 0 8000 м {дождь} 6/5 480 м
[Cu med, cong As trans Ci fib]
+27.4 +24.5 84 +39 +39 очень
душно
1008.5 1008.2 +31.6 4
15 21.06 штиль 0 8000 м 6/5 480 м
[Cu med, cong As trans Ci fib]
+26.3 +24.2 88 +37 +37 очень
душно
1009.9 1009.6
00 22.06 штиль 0 8000 м 5/3 450 м
[Sc diur, vesp Ac trans Ci fib]
+25.8 +24.1 90 +36 +38 очень
душно
1009.9 1009.7 +24.1 4
03 22.06 штиль 0 8000 м 6/4 450 м
[Cu med, cong Ac trans Ci fib]
+29.7 +23.7 70 +41 +51 опасность
перегрева
1009.1 1008.9
06 22.06 С 2 8000 м 8/5 420 м
[Cu med, cong As trans Ci fib]
+31.1 +24.1 66 +43 +48 опасность
перегрева
1007.1 1006.8
09 22.06 В 2 8000 м 6/5 420 м
[Cu med, cong Ac trans Ci fib]
+30.3 +23.9 69 +42 +43 опасность
перегрева
1006.3 1006.0
12 22.06 Ю 1 8000 м 6/5 420 м
[Cu med, cong Ac trans Ci fib]
+27.1 +23.8 82 +37 +37 очень
душно
1008.2 1007.9 +31.5
15 22.06 В 2 8000 м 6/5 420 м
[Cu med, cong Ac trans Ci fib]
+25.8 +24.0 90 +36 +36 очень
душно
1009.4 1009.1
00 23.06 штиль 0 8000 м 5/4 420 м
[Cu med, cong Ac trans Ci fib]
+25.5 +24.1 92 +35 +38 очень
душно
1010.8 1010.6 +23.5
03 23.06 З 3 8000 м 6/4 420 м
[Cu med, cong Ac trans Ci fib]
+29.5 +24.3 74 +41 +48 опасность
перегрева
1010.5 1010.3
06 23.06 ЮВ 4 8000 м {дождь} 8/5 420 м
[Cu med, cong Ac trans Ci fib]
+31.2 +24.0 66 +43 +47 опасность
перегрева
1008.3 1008.0 0.0
09 23.06 Ю 4 8000 м 8/5 420 м
[Cu med, cong Ac lent Ci fib]
+29.9 +23.8 70 +41 +42 опасность
перегрева
1007.7 1007.4
12 23.06 Ю 2 8000 м 8/5 420 м
[Cu med, cong Ac trans Ci fib]
+26.7 +24.2 86 +37 +37 очень
душно
1009.2 1008.9 +31.5
15 23.06 Ю 2 8000 м 8/5 420 м
[Cu med, cong Ac trans Ci fib]
+25.8 +24.6 93 +36 +36 очень
душно
1010.7 1010.4
00 24.06 штиль 0 8000 м 5/4 420 м
[Cu med, cong Ac trans]
+25.8 +24.4 92 +36 +38 очень
душно
1012.3 1012.1 +24.1 0.4
03 24.06 З 3 8000 м 8/5 420 м
[Cu med, cong Ac trans Ci fib]
+29.8 +23.4 69 +40 +45 очень
душно
1011.8 1011.6
06 24.06 ЮВ 4 8000 м 8/5 420 м
[Cu med, cong Ac trans Ci fib]
+29.2 +24.3 75 +41 +44 опасность
перегрева
1009.9 1009.7
09 24.06 В 4 9000 м 6/4 450 м
[Cu med, cong Ac trans Ci fib]
+30.1 +23.4 67 +41 +41 опасность
перегрева
1009.3 1009.1
12 24.06 Ю 2 9000 м 6/4 450 м
[Cu med, cong Ac trans Ci fib]
+26.6 +23.5 83 +36 +36 очень
душно
1010.5 1010.3 +30.3
15 24.06 штиль 0 8000 м 6/4 450 м
[Cu med, cong Ac trans Ci fib]
+25.3 +23.6 90 +34 +34 очень
душно
1012.0 1011.8
00 25.06 Ю 2 8000 м 6/4 450 м
[Cu med, cong Ac trans Ci fib]
+26.1 +24.0 88 +36 +38 очень
душно
1013.0 1012.8 +24.5

 

Местоположение метеостанции Котабару (Индонезия): широта -3.40 долгота 116.21 высота над уровнем моря 18 м.

В архиве по умолчанию представлена погода в Котабару за последнюю неделю. Архивные данные за месяц целиком и за предыдущие месяцы, начиная с января 2011 года, Вы можете получить, выбрав интересующий диапазон дат из раскрывающегося списка и нажав кнопку "Ввод!".


*Определитесь, кто Вы:
робот инопланетянин человек

Внимание! Время в таблицах - всемирное. Для получения местного времени необходимо прибавить поправку, которая равна 8 ч.

Смотрите также архив погоды в соседних городах и на ближайших метеорологических станциях:

Погода в Банджармасине (Индонезия) (162 км)
Погода в Баликпапане (Индонезия) (249 км)
Погода в Муаратевехе (Индонезия) (309 км)
Погода в Маджене (Индонезия) (326 км)
Погода в Самаринде (Индонезия) (326 км)
Погода в Паоанкарая (Индонезия) (363 км)
Погода в Аэропорту Султана Хасануддин (Индонезия) (414 км)
Погода в Уджангпанданге (Индонезия) (414 км)
Погода в Масамбе (Индонезия) (471 км)
Погода в Калиянджете (Индонезия) (476 км)

Пояснения к столбцам:

Ветер - указаны скорость ветра в м/с - средняя за 10 мин, порывы в срок и между сроками (в фигурных скобках) и направление, откуда дует ветер: С - северный, СВ - северо-восточный, В - восточный, ЮВ - юго-восточный, Ю - южный, ЮЗ - юго-западный, З - западный, СЗ - северо-западный.
Видимость - горизонтальная дальность видимости в метрах или километрах. При видимости от 1 до 10 км при отсутствии осадков обычно наблюдается дымка, при ухудшении видимости до 1 км и менее - туман. В сухую погоду видимость может ухудшаться дымом, пылью или мглою.
Явления - указаны атмосферные явления, наблюдавшиеся в срок или в последний час перед сроком; фигурными скобками обозначены явления, наблюдавшиеся между сроками (за 1-3 часа до срока); квадратными скобками обозначены град или гололедные отложения с указанием их диаметра в мм.
Облачность - указаны через наклонную черту общая и нижняя облачность в баллах и высота нижней границы облаков в метрах; квадратными скобками обозначены формы облаков: Ci - перистые, Cs - перисто-слоистые, Cc - перисто-кучевые, Ac - высококучевые, As - высокослоистые, Sc - слоисто-кучевые, Ns - слоисто-дождевые, Cu - кучевые, Cb - кучево-дождевые. Подробнее классификацию облаков см. в Атласе облаков (PDF).
T - Температура воздуха - температура, измеренная на высоте 2 м над землей.
Td - Температура точки росы - температура, при понижении до которой содержащийся в воздухе водяной пар достигнет насыщения.
f - Относительная влажность воздуха - влажноcть воздуха, измеренная на высоте 2 м над землей.
Te - Эффективная температура - температура, которую ощущает одетый по сезону человек в тени. Характеристика душности погоды. При расчете учитывается влияние влажности воздуха и скорости ветра на теплоощущения человека.
Tes - Эффективная температура на солнце - температура, которую ощущает человек, с поправкой на солнечный нагрев. Характеристика знойности погоды. Зависит от высоты солнца над горизонтом, облачности и скорости ветра. Ночью, в пасмурную погоду, а также при ветре 12 м/с и более поправка равна нулю.
P - Атмосферное давление - приведенное к уровню моря атмосферное давление.
Po - Атмосферное давление - измеренное на уровне метеостанции атмосферное давление.
Tmin - Минимальная температура - минимум температуры воздуха на высоте 2 м над землей.
Tmax - Максимальная температура - максимум температуры воздуха на высоте 2 м над землей.
R - Количество осадков - Количество выпавших осадков за период времени, мм. При наведении курсора мыши на число - период времени, за который выпало указанное количество осадков.
R24 - Количество осадков - Количество выпавших осадков за 24 часа, мм.
S - Снежный покров - Высота снежного покрова, см. При наведении курсора мыши на число - состояние снежного покрова и степень покрытия местности в баллах.